星链-3189 (STARLINK-3189 )

导读

STARLINK-3189是美国太空探索技术公司(SpaceX)星链(Starlink)星座中的一颗卫星,于2022年2月3日发射入轨,属于星链互联网卫星组网的一部分,旨在为全球提供低延迟、高速率的宽带互联网服务,是星链大规模部署进程中的一颗组网卫星,推动了全球卫星互联网基础设施的构建。

Basic Information
目录编号:
51464
目录名称:
STARLINK-3189
国际标识:
2022-010J
轨道中心:
EARTH
卫星名称:
星链-3189
卫星全名:
星链-3189 (STARLINK-3189 )
卫星状态:
在轨 (已飞行1675 天)
发射日期:
2022-02-03 UTC
国别 :
美国 (US)
星等 :
--
Orbit Information
数据来源 国际轨道数据
星历时间: 2026-09-04T14:33:02+0800
1天前
查看轨道信息
半长轴: 6840.858km
偏心率: 0.0001315
轨道倾角: 53.162°
近地点辐角 91.825°
升交点赤经 191.932°
平近点角 268.290°
近地点: 461.821km
远地点: 463.621km
周期: 93.848分钟
每日圈数: 15.343942
Detailed Information
固有亮度:
5
最大亮度:
2.5
卫星平台:
Starlink v1.5
覆盖范围:
全球
运营商:
太空探索技术公司
运营商所在国:
美国
制造商(研发单位):
太空探索技术公司
制造商所在国:
美国
使用方式:
暂无
Satellite Introduction
星链(Starlink)计划是由太空探索技术公司(SpaceX)提出的一个巨型低轨卫星互联网星座项目,计划在2019年至2024年间在太空搭建由约1.2万颗卫星组成的“星链”网络,其中1584颗将部署在地球上空550千米处的近地轨道,并从2020年开始工作。该卫星仍在工作。
2D Orbit Map
3D Orbit Map
Orbit Altitude Analysis Chart
Orbit Inclination Analysis Chart
Orbit Comprehensive Analysis Chart
View Comprehensive Chart
Conjunction Data List
Event ID Objects TCA Miss Dist (km) Collision Risk Probability Collision Risk Index (CRI) Action
CDM_260905-055605-146405-825021
2026-09-05T
05:56:35+0000
0.309 km
远距离
4.320205E-4 高风险 0.88
CDM_260907-160705-146406-623321
2026-09-07T
16:07:38+0000
1.024 km
极远距离
1.511137E-5 中风险 0.59
CDM_260830-182404-302305-146424
2026-08-30T
18:24:20+0000
1.449 km
极远距离
7.199355E-6 低风险 0.52
CDM_260907-143305-146406-623321
2026-09-07T
14:33:50+0000
1.914 km
极远距离
2.041237E-6 低风险 0.41
CDM_260907-095105-146405-273722
2026-09-07T
09:51:40+0000
2.697 km
极远距离
1.495883E-6 低风险 0.38